Change the Weather History Date:

Thursday, January 30, 2014

  Actual Average Record
Temperature  
Mean Temperature 57 °F -  
Max Temperature 64 °F 55 °F 71 °F (2015)
Min Temperature 50 °F 38 °F 30 °F (2002)
Degree Days  
Heating Degree Days 8    
Growing Degree Days 7 (Base 50)    
Moisture  
Dew Point 50 °F    
Average Humidity 87    
Maximum Humidity 100    
Minimum Humidity 49    
Precipitation  
Precipitation 0.11 in - - ()
Sea Level Pressure  
Sea Level Pressure 29.89 in    
Wind  
Wind Speed 7 mph (SW)    
Max Wind Speed 20 mph    
Max Gust Speed 23 mph    
Visibility 10 miles    
Events Rain , Thunderstorm    
Averages and records for this station are not official NWS values.
T = Trace of Precipitation, MM = Missing Value Source: NWS Daily Summary

Daily Weather History Graph

Daily Weather History Graph

Search for Another Location

Airport or City:

Trip Planner

Search our weather history database for the weather conditions in past years. The results will help you decide how hot, cold, wet, or windy it might be!

Date:

Astronomy

Jan. 30, 2014 Rise Set
Actual Time 7:14 AM PST 5:28 PM PST
Civil Twilight 6:46 AM PST 5:56 PM PST
Nautical Twilight 6:14 AM PST 6:28 PM PST
Astronomical Twilight 5:43 AM PST 6:59 PM PST
Moon 6:45 AM PST 5:45 PM PST
Length of Visible Light 11h 09m
Length of Day
10h 14m
Waning Crescent, 0% of the Moon is Illuminated
Jan 30
Waning Crescent
Jan 30
New
Feb 6
First Quarter
Feb 14
Full
Feb 22
Last Quarter

Hourly Weather History & Observations

Time (PST) Temp. Dew Point Humidity Pressure Visibility Wind Dir Wind Speed Gust Speed Precip Events Conditions
12:58 AM 52.2 °F 52.2 °F 100% 29.98 in 10.0 mi SSW 4.6 mph - 0.02 in Rain Light Rain
1:58 AM 52.2 °F 52.2 °F 100% 29.95 in 10.0 mi SW 5.8 mph - 0.03 in Rain Light Rain
2:19 AM 51.8 °F 51.8 °F 100% 29.91 in 10.0 mi SW 3.5 mph - N/A   Mostly Cloudy
2:58 AM 51.6 °F 51.6 °F 100% 29.93 in 10.0 mi WSW 3.5 mph - 0.00 in   Overcast
3:14 AM 51.8 °F 51.8 °F 100% 29.91 in 10.0 mi SW 2.3 mph - N/A Rain Light Rain
3:25 AM 51.8 °F 51.8 °F 100% 29.90 in 10.0 mi Calm Calm - N/A   Overcast
3:46 AM 51.8 °F 51.8 °F 100% 29.90 in 10.0 mi West 2.3 mph - N/A Rain Light Rain
3:58 AM 51.8 °F 51.8 °F 100% 29.92 in 10.0 mi SW 3.5 mph - 0.01 in Rain Light Rain
4:53 AM 51.8 °F 51.8 °F 100% 29.89 in 10.0 mi South 5.8 mph - N/A   Scattered Clouds
4:55 AM 51.8 °F 51.8 °F 100% 29.89 in 10.0 mi South 6.9 mph - N/A Rain Light Rain
4:58 AM 51.1 °F 51.1 °F 100% 29.90 in 10.0 mi South 6.9 mph - 0.04 in Rain Light Rain
5:20 AM 50.0 °F 50.0 °F 100% 29.87 in 10.0 mi SSW 9.2 mph - N/A   Partly Cloudy
5:58 AM 50.5 °F 50.5 °F 100% 29.89 in 10.0 mi WSW 6.9 mph - 0.01 in   Overcast
6:58 AM 51.6 °F 51.6 °F 100% 29.89 in 10.0 mi WSW 6.9 mph - N/A   Overcast
7:58 AM 51.3 °F 51.3 °F 100% 29.89 in 10.0 mi WSW 10.4 mph - N/A   Overcast
8:58 AM 53.1 °F 52.9 °F 99% 29.90 in 10.0 mi WSW 6.9 mph - N/A   Overcast
9:58 AM 54.3 °F 54.0 °F 99% 29.91 in 10.0 mi WSW 8.1 mph - N/A   Overcast
10:58 AM 56.7 °F 53.4 °F 89% 29.91 in 10.0 mi SW 8.1 mph - N/A   Overcast
11:58 AM 59.5 °F 51.8 °F 76% 29.90 in 10.0 mi SW 9.2 mph - N/A   Clear
12:58 PM 61.7 °F 48.7 °F 62% 29.88 in 10.0 mi Variable 5.8 mph - N/A   Scattered Clouds
1:58 PM 63.1 °F 46.9 °F 55% 29.85 in 10.0 mi SW 9.2 mph - N/A   Clear
2:58 PM 64.2 °F 44.6 °F 49% 29.83 in 10.0 mi West 10.4 mph - N/A   Partly Cloudy
3:58 PM 63.3 °F 44.1 °F 49% 29.83 in 10.0 mi SW 16.1 mph 23.0 mph N/A   Clear
4:58 PM 59.4 °F 42.4 °F 54% 29.83 in 10.0 mi WSW 16.1 mph - N/A   Partly Cloudy
5:58 PM 55.9 °F 45.3 °F 68% 29.82 in 10.0 mi SW 17.3 mph - N/A   Mostly Cloudy
6:58 PM 53.4 °F 47.3 °F 80% 29.84 in 10.0 mi SW 19.6 mph - N/A   Partly Cloudy
7:58 PM 52.0 °F 47.1 °F 83% 29.85 in 10.0 mi SW 17.3 mph - N/A   Clear
8:58 PM 51.8 °F 46.9 °F 83% 29.87 in 10.0 mi WSW 15.0 mph - N/A   Partly Cloudy
9:58 PM 51.6 °F 48.0 °F 87% 29.88 in 10.0 mi WSW 18.4 mph - N/A   Clear
10:58 PM 51.8 °F 48.2 °F 88% 29.90 in 10.0 mi West 12.7 mph - N/A   Scattered Clouds
11:49 PM 51.8 °F 46.4 °F 82% 29.89 in 10.0 mi NNE 11.5 mph - N/A Thunderstorm Thunderstorm
11:58 PM 52.2 °F 47.5 °F 84% 29.92 in 10.0 mi NE 12.7 mph - N/A Thunderstorm Thunderstorm